GFSNGP_con_mlcape_000.txt.gz
CAPE
0 0 0 0 0 0 0 0 0 0 0 0 0 0 0 2 4 3 10 23 14 116 237 458 752 1022 1324 1409 1375 1099 639 381 351 78 56 15 10 1 0 4 11 6 0 0
0 0 0 0 0 0 0 0 0 0 0 0 0 0 7 12 14 0 24 98 64 191 473 730 893 1045 1124 1215 1250 914 578 417 311 212 165 47 50 16 12 6 59 10 13 51
0 0 0 0 0 0 0 0 0 0 0 1 2 23 17 6 0 0 1 3 194 709 786 1041 1196 1162 1039 1023 938 864 538 364 284 318 140 151 151 124 51 21 68 103 76 111
1 0 0 0 0 9 16 24 10 0 0 0 1 54 25 0 0 0 0 0 0 143 735 1151 1506 1367 903 599 718 650 431 368 323 373 202 264 239 155 130 169 211 311 293 128
8 2 0 7 41 41 36 24 51 47 24 27 38 24 14 0 0 0 0 0 0 36 236 458 1397 1470 876 525 579 575 358 306 384 427 480 338 319 187 246 283 343 346 307 21
9 1 3 30 112 92 82 64 59 95 17 25 32 40 31 5 0 0 51 68 59 166 357 663 1256 1154 931 643 473 442 313 342 336 334 371 336 298 297 375 460 512 471 332 170
20 3 0 71 172 65 89 99 37 11 43 91 104 112 60 66 158 183 181 128 233 321 300 610 1132 1058 913 589 597 383 347 251 239 431 426 382 356 537 591 605 362 200 125 31
46 62 67 29 192 202 68 26 14 3 7 2 0 2 3 0 0 1 19 319 453 502 723 1156 1132 1099 907 653 327 332 255 260 180 20 175 675 699 880 689 484 333 86 22 14
114 1 0 0 1 0 0 0 0 4 0 16 4 30 14 0 0 0 0 0 215 611 1023 1459 1046 712 565 235 305 215 184 207 0 0 0 0 391 820 651 223 37 26 22 89
0 0 0 0 0 0 0 0 0 0 0 0 5 16 5 1 77 418 434 155 432 992 933 1055 745 556 453 319 72 11 0 0 0 0 0 13 439 396 259 231 154 27 15 12
60 0 0 0 0 0 0 0 0 0 0 0 0 189 812 683 787 652 652 790 929 1154 986 720 454 222 31 0 0 0 0 0 0 2 22 171 62 69 126 0 0 0 0 0
117 14 0 0 0 0 0 0 0 0 0 0 0 708 673 506 951 907 946 839 737 599 359 58 3 0 0 0 0 0 0 0 0 46 100 100 117 0 0 0 0 0 0 0
25 0 0 0 0 0 0 0 0 0 0 0 0 0 1 1008 790 625 718 914 862 375 60 37 2 0 0 0 0 0 0 0 27 167 225 46 11 35 0 0 0 0 0 0
0 0 0 0 0 0 0 0 0 0 0 0 0 0 0 0 104 636 550 548 438 155 8 0 0 0 0 0 7 1 42 105 59 38 40 4 0 0 0 0 0 0 0 0
0 0 0 0 0 0 0 0 0 0 0 0 0 0 0 0 0 0 489 403 131 8 0 3 137 303 219 150 132 101 100 63 99 133 101 78 47 4 0 0 0 0 0 0
0 0 0 0 0 0 0 0 0 0 0 0 0 0 0 0 0 0 414 74 65 48 200 239 190 190 152 79 8 8 6 22 81 128 116 11 0 1 10 0 0 0 0 0
0 0 0 0 0 0 0 0 0 0 0 0 0 0 0 0 0 0 309 198 211 300 296 330 335 123 0 0 0 1 27 16 7 9 16 1 0 2 5 0 0 0 0 0
0 0 0 0 0 0 0 0 0 0 0 0 0 0 0 0 0 58 109 141 78 46 38 0 0 0 43 121 105 14 4 2 19 25 21 2 0 0 0 0 0 0 0 0
0 0 0 0 0 0 0 0 0 0 0 0 0 0 0 14 193 143 38 67 92 146 125 84 195 194 139 43 9 11 0 10 21 10 0 0 0 0 2 6 0 0 0 0
0 0 0 0 0 0 0 0 0 5 0 7 0 0 31 105 219 187 124 168 163 119 166 140 140 87 23 5 0 0 0 0 0 0 0 0 0 0 0 2 4 0 0 0
0 0 0 0 0 0 0 0 0 0 0 0 0 0 7 42 72 21 91 59 61 100 41 13 60 0 0 0 0 0 0 0 0 0 0 0 0 0 0 0 0 0 0 0
0 0 0 0 0 0 0 0 0 0 0 0 0 0 0 2 14 98 99 22 1 59 6 0 0 0 0 0 0 0 0 0 0 0 0 0 0 0 0 0 0 0 0 0
0 0 0 0 0 0 0 0 0 0 0 0 0 19 29 24 30 30 36 0 0 0 0 0 0 0 0 0 0 0 0 0 0 0 0 0 0 0 0 0 0 0 0 0
0 0 0 0 0 0 0 0 0 0 0 1 0 1 1 2 5 6 2 0 0 0 0 0 0 0 0 0 0 0 0 0 0 0 0 0 0 0 0 0 0 0 0 0
0 0 0 0 0 0 0 11 5 7 12 17 25 6 0 0 0 0 2 7 1 0 0 0 0 0 0 0 0 0 0 0 0 0 0 0 0 0 0 0 0 0 0 0
4 0 0 0 3 2 2 1 0 0 12 15 12 12 2 0 0 0 0 0 5 0 0 0 0 0 0 0 0 0 0 0 0 0 0 0 0 0 0 0 0 0 0 0
0 0 0 1 0 4 5 4 4 0 3 0 5 22 22 32 33 24 12 0 0 1 0 0 0 0 0 0 0 0 0 0 0 0 0 0 0 0 0 0 0 0 0 0

GFSNGP_con_mlcape_003.txt.gz
CAPE
0 0 0 0 0 0 0 0 0 0 0 0 0 0 0 2 3 0 7 0 0 20 128 275 384 717 1063 1355 1560 1389 1151 988 769 154 28 345 319 64 4 0 6 0 0 0
0 0 0 0 0 0 0 0 0 0 0 0 0 0 0 0 0 0 0 0 0 1 34 114 254 536 834 1235 1529 1426 1194 1210 665 250 20 326 152 0 0 0 2 5 6 0
0 0 0 0 0 0 0 0 0 0 0 0 0 0 0 0 0 0 0 6 2 7 33 107 201 468 720 1083 1446 1403 1335 906 834 516 67 163 35 15 4 1 5 3 22 28
0 0 0 0 0 0 0 9 3 0 0 0 0 0 1 0 0 0 4 55 179 174 194 289 459 624 769 1064 1321 1295 1161 847 590 463 241 208 56 113 76 90 45 48 28 51
0 0 0 11 43 52 32 27 9 9 0 0 0 0 1 0 3 55 25 10 27 76 22 145 504 890 997 1018 1141 1148 868 554 550 368 357 193 221 140 185 187 177 207 150 139
0 0 4 13 47 21 1 33 9 0 0 4 0 2 26 0 2 1 0 2 2 6 48 163 279 938 1122 1000 974 1040 918 718 634 266 307 197 302 194 309 276 236 300 298 191
4 9 47 1 1 9 79 14 0 0 0 22 42 1 0 2 0 26 86 159 151 131 86 161 395 529 892 936 1058 972 744 694 682 352 283 240 188 57 4 87 254 428 422 367
96 34 49 1 78 64 18 0 0 0 0 0 0 0 0 1 7 5 1 0 0 237 700 589 610 619 723 963 749 597 569 545 342 158 128 49 48 29 1 0 21 83 229 183
0 3 0 0 0 0 0 0 0 0 2 9 7 0 0 0 0 10 0 0 0 0 111 538 928 805 788 734 549 529 471 302 27 1 0 0 0 9 21 0 0 103 67 55
0 0 0 0 0 0 0 0 0 0 0 0 0 0 0 0 0 79 28 5 153 261 262 583 832 766 633 496 376 387 184 111 20 10 11 0 0 2 98 129 155 44 42 76
0 0 0 0 0 0 0 0 0 0 0 0 0 39 71 12 41 9 224 237 520 596 693 706 524 369 165 86 148 124 55 4 0 0 0 27 11 45 118 16 12 59 49 0
0 0 0 0 0 0 0 0 0 0 0 0 0 0 40 62 537 597 626 598 669 526 620 377 196 16 14 1 6 1 0 0 0 0 1 1 0 0 0 0 0 0 0 0
0 0 0 0 0 0 0 0 0 0 0 0 0 0 0 0 0 301 444 439 593 592 441 65 1 0 0 0 0 0 0 15 0 0 0 0 25 14 0 0 0 0 0 0
0 0 0 0 0 0 0 0 0 0 0 0 0 0 0 0 0 0 2 376 273 27 2 0 0 0 0 0 0 0 0 0 0 6 4 0 1 7 0 0 0 0 0 0
0 0 0 0 0 0 0 0 0 0 0 0 0 0 0 0 0 0 0 9 174 55 13 0 0 0 0 0 0 75 57 72 70 63 83 32 0 0 0 0 0 0 0 0
0 0 0 0 0 0 0 0 0 0 0 0 0 0 0 0 0 0 0 1 48 12 0 0 0 0 19 102 121 68 79 66 44 64 58 45 1 0 0 0 0 0 0 0
0 0 0 0 0 0 0 0 0 0 0 0 0 0 0 0 0 0 0 0 27 0 0 10 182 184 194 86 40 1 0 0 19 69 33 7 11 12 5 0 0 0 0 0
0 0 0 0 0 0 0 0 0 0 0 0 0 0 0 0 0 0 0 0 45 57 111 156 191 77 20 1 1 0 0 0 1 0 0 7 5 4 1 0 0 0 0 0
0 0 0 0 0 0 0 0 0 0 0 0 0 0 0 0 0 0 0 46 133 130 48 0 0 4 20 45 1 0 0 0 0 0 0 0 0 0 0 0 0 0 0 0
0 0 0 0 0 0 0 0 0 0 0 0 0 0 0 0 0 0 20 83 7 22 0 56 77 59 21 0 0 0 0 0 0 0 0 0 0 0 0 0 3 0 0 0
0 0 0 0 0 0 0 0 0 0 0 0 0 0 0 0 3 8 30 48 75 25 79 47 35 7 0 0 0 0 0 0 0 0 0 0 0 0 0 0 0 0 0 0
0 0 0 0 0 0 0 0 0 0 0 0 0 0 0 0 0 5 17 16 12 39 19 30 4 0 0 0 0 0 0 0 0 0 0 0 0 0 0 0 0 0 0 0
0 0 0 0 0 0 0 0 0 0 0 0 0 0 0 0 0 6 13 4 10 4 0 0 0 0 0 0 0 0 0 0 0 0 0 0 0 0 0 0 0 0 0 0
0 0 0 0 0 0 0 0 0 0 0 0 0 0 0 0 0 0 0 0 1 0 0 0 0 0 0 0 0 0 0 0 0 0 0 0 0 0 0 0 0 0 0 0
0 0 0 0 0 0 0 0 0 4 21 18 22 11 0 0 0 0 0 5 9 4 0 0 0 0 0 0 0 0 0 0 0 0 0 0 0 0 0 0 0 0 0 0
0 0 0 0 0 0 0 0 0 0 0 1 3 1 10 0 0 0 0 1 5 1 0 0 0 0 0 0 0 0 0 0 0 0 0 0 0 0 0 0 0 0 0 0
0 0 0 0 0 0 0 0 0 0 0 1 0 1 4 7 3 1 2 3 0 0 0 0 4 0 0 0 0 0 0 0 0 0 0 0 0 0 0 0 0 0 0 0

GFSNGP_con_mlcape_006.txt.gz
CAPE
0 0 0 0 0 0 0 0 0 0 0 0 0 0 0 0 0 0 0 3 55 126 201 343 440 515 714 1006 1234 1245 980 725 771 626 285 24 0 11 0 0 0 0 0 0
0 0 0 0 0 0 0 0 0 0 0 0 0 0 0 0 0 0 4 15 27 77 184 244 278 341 557 817 1016 1254 1088 855 723 470 353 233 26 1 7 21 7 2 0 0
0 0 0 0 0 0 0 0 0 0 0 0 0 0 0 0 0 18 38 24 40 24 44 54 100 219 403 646 948 1232 1173 992 800 447 215 19 0 11 196 177 61 1 0 0
0 0 0 0 0 0 0 0 0 0 0 0 0 0 0 0 0 0 1 11 21 13 2 0 5 98 238 481 780 1110 1191 1177 775 419 215 65 0 0 123 109 2 5 12 27
0 0 0 0 0 0 0 4 5 0 0 0 0 0 0 0 0 0 0 20 47 66 76 10 19 167 320 508 773 1034 1156 1165 906 583 332 152 32 1 3 23 28 48 59 70
0 0 0 0 0 5 11 15 0 0 0 0 0 0 0 0 0 0 1 48 96 107 25 4 44 270 326 476 845 975 1070 1085 932 802 428 86 2 0 0 8 23 68 91 25
0 0 0 0 0 10 36 0 0 0 0 3 0 0 0 0 0 0 7 47 93 141 214 297 308 335 231 367 550 850 849 865 813 767 622 87 1 1 0 26 36 45 0 1
0 26 74 0 36 55 5 0 0 0 0 0 0 0 0 0 0 0 0 0 0 0 0 33 125 345 429 307 608 712 675 521 442 428 309 54 26 0 0 37 36 24 15 3
0 0 0 0 0 0 0 0 0 0 0 0 0 0 0 0 0 0 22 48 140 79 74 136 286 557 351 552 546 470 334 252 150 40 48 5 0 0 0 0 0 1 15 0
0 0 0 0 0 0 0 0 0 0 0 0 0 0 5 104 74 7 40 83 246 236 209 307 428 439 469 395 378 285 147 25 0 0 0 0 0 0 0 0 0 0 32 69
0 0 0 0 0 0 0 0 0 0 0 0 0 0 0 0 196 296 325 303 294 259 230 443 470 411 390 335 248 204 94 38 28 0 0 0 0 0 0 0 14 22 20 30
0 0 0 0 0 0 0 0 0 0 0 0 0 0 0 0 0 206 389 416 390 301 348 425 416 421 343 301 330 212 62 5 0 0 0 0 0 0 0 0 0 0 0 0
0 0 0 0 0 0 0 0 0 0 0 0 0 0 0 0 0 0 0 11 440 353 212 319 247 236 74 124 174 36 6 0 0 0 0 0 0 0 0 0 0 0 0 0
0 0 0 0 0 0 0 0 0 0 0 0 0 0 0 0 0 0 0 0 0 173 204 134 197 250 15 0 0 0 0 0 0 2 0 0 0 0 0 0 0 0 0 0
0 0 0 0 0 0 0 0 0 0 0 0 0 0 0 0 0 0 0 0 0 36 162 110 42 0 0 0 0 0 0 0 0 0 0 0 0 0 0 0 0 0 0 0
0 0 0 0 0 0 0 0 0 0 0 0 0 0 0 0 0 0 0 0 0 0 113 10 0 0 0 0 0 0 51 47 39 21 0 0 0 0 0 0 0 0 0 0
0 0 0 0 0 0 0 0 0 0 0 0 0 0 0 0 0 0 0 0 0 0 0 12 0 0 0 0 27 19 37 19 1 0 0 0 0 0 0 0 0 0 0 0
0 0 0 0 0 0 0 0 0 0 0 0 0 0 0 0 0 0 0 0 0 0 0 0 0 0 40 14 6 0 0 0 0 38 13 7 6 0 0 0 0 0 0 0
0 0 0 0 0 0 0 0 0 0 0 0 0 0 0 0 0 0 0 0 0 2 0 0 0 0 0 0 0 0 0 0 0 0 0 0 0 0 0 0 0 0 0 0
0 0 0 0 0 0 0 0 0 0 0 0 0 0 0 0 0 0 0 0 0 0 0 0 0 0 8 9 0 0 0 0 0 0 0 0 1 2 0 0 0 0 0 0
0 0 0 0 0 0 0 0 0 0 0 0 0 0 0 0 0 0 0 0 0 0 1 2 4 0 0 0 0 0 0 0 0 0 0 0 0 0 0 0 1 2 0 0
0 0 0 0 0 0 0 0 0 0 0 0 0 0 0 0 0 0 0 0 0 0 0 1 0 0 0 0 0 0 0 0 0 0 0 0 0 0 0 0 0 0 0 0
0 0 0 0 0 0 0 0 0 0 0 0 0 0 0 0 0 0 0 0 0 0 0 0 0 0 0 0 0 0 0 0 0 0 0 0 0 0 0 0 0 0 0 0
0 0 0 0 0 0 0 0 0 2 2 5 2 0 0 0 0 0 0 0 0 0 0 0 1 0 0 0 0 0 0 0 0 0 0 0 0 0 0 0 0 0 0 0
0 0 0 0 0 0 0 0 0 3 3 12 11 7 0 0 0 0 0 0 8 10 5 0 0 1 0 0 0 0 0 0 0 0 0 0 0 0 0 0 0 0 0 0
0 0 0 0 0 0 0 0 0 0 0 0 0 0 1 2 0 0 0 0 2 12 15 3 0 0 0 0 0 0 0 0 0 0 0 0 0 0 0 0 0 0 0 0
0 0 0 0 0 0 0 0 0 0 0 0 0 0 0 0 0 1 0 0 0 0 0 0 0 0 0 0 0 0 0 0 0 0 0 0 0 0 0 0 0 0 0 0

GFSNGP_con_mlcape_009.txt.gz
CAPE
0 0 0 0 0 0 0 0 0 0 0 0 0 0 0 0 6 3 23 51 164 245 431 781 1073 1231 1283 1380 1527 1627 1756 1812 1337 884 766 804 254 18 0 0 20 8 0 0
0 0 0 0 0 0 0 0 0 0 0 0 0 0 0 0 25 14 21 71 163 244 437 576 773 863 1083 1321 1559 1772 1841 1726 1454 1177 748 475 106 10 0 0 0 0 0 6
0 0 0 0 0 0 0 0 0 0 0 0 0 0 0 0 8 70 74 120 175 251 412 513 602 779 805 992 1255 1553 1662 1657 1472 1239 809 432 116 15 0 0 0 0 0 2
1 0 0 0 0 0 0 0 0 0 0 0 0 0 1 1 36 109 191 278 242 206 317 361 426 494 615 883 1045 1254 1519 1587 1468 1204 811 468 216 68 0 0 0 0 6 4
0 0 0 0 0 0 0 0 0 0 0 0 0 0 0 0 0 18 74 131 190 181 127 97 139 245 482 679 835 1048 1313 1537 1581 1271 861 603 390 84 42 0 0 3 69 34
1 0 0 0 0 0 0 0 0 0 0 0 0 0 37 0 0 9 68 150 246 217 150 117 150 238 265 294 435 632 1333 1598 1696 1222 1037 697 421 122 72 2 0 28 11 97
122 42 0 0 0 4 0 0 0 0 0 0 2 40 3 8 77 179 210 382 515 386 264 274 317 414 292 481 574 1329 1602 1667 1479 1173 1066 877 352 109 41 1 0 5 71 199
49 83 31 0 9 124 46 0 3 5 12 14 14 3 21 23 20 24 24 4 92 58 107 204 237 296 451 524 827 1170 1302 1382 1231 1094 639 389 263 25 21 0 0 0 7 28
0 2 0 0 0 0 78 45 47 54 33 12 56 103 81 66 80 127 262 241 408 356 300 340 421 510 242 456 744 923 1128 1064 950 819 552 296 210 74 4 0 0 0 0 0
0 0 0 0 0 0 0 0 0 27 9 7 16 79 203 241 240 244 414 402 329 301 371 389 553 564 611 622 788 818 859 784 713 669 446 246 127 46 49 2 0 0 1 10
6 0 0 0 0 0 0 0 0 0 0 0 0 0 103 281 359 394 416 375 403 340 277 319 551 613 672 675 647 718 655 480 345 262 262 63 7 0 0 0 0 0 0 52
2 0 0 0 0 0 0 0 0 0 0 0 0 0 0 0 0 0 60 507 549 478 465 364 461 534 549 533 499 502 393 210 72 0 0 0 0 0 0 0 0 0 0 61
0 0 0 0 0 0 0 0 0 0 0 0 0 0 0 0 0 0 0 0 24 501 414 481 509 540 504 468 433 366 357 137 1 2 4 2 0 0 0 0 0 0 0 0
0 0 0 0 0 0 0 0 0 0 0 0 0 0 0 0 0 0 0 0 0 0 315 450 542 536 456 379 325 309 213 0 0 0 0 0 0 0 0 0 2 0 0 0
0 0 0 0 0 0 0 0 0 0 0 0 0 0 0 0 0 0 0 0 0 0 7 352 423 414 258 234 176 28 0 0 0 2 8 21 15 0 3 49 33 0 0 0
0 0 0 0 0 0 0 0 0 0 0 0 0 0 0 0 0 0 0 0 0 0 0 192 322 138 0 0 0 0 0 0 14 34 21 41 41 50 51 50 1 0 0 0
0 0 0 0 0 0 0 0 0 0 0 0 0 0 0 0 0 0 0 0 0 0 0 111 188 1 0 0 0 21 98 92 62 98 121 102 91 86 59 4 0 0 0 0
0 0 1 0 0 0 0 0 0 0 0 0 0 0 0 0 0 0 0 0 0 0 0 0 18 10 0 0 30 31 12 32 114 145 115 83 90 29 17 18 1 0 0 0
1 0 0 0 0 0 0 0 0 0 0 0 0 0 0 0 0 0 0 0 7 44 0 0 0 0 17 19 9 7 21 51 78 80 118 34 54 112 96 44 7 5 1 0
0 0 0 0 0 0 0 0 0 0 0 0 0 0 0 0 0 0 0 0 0 0 3 0 1 16 29 0 1 41 44 27 12 9 16 45 89 98 57 5 1 0 0 0
0 0 0 0 0 0 0 0 0 0 0 0 0 0 0 0 0 0 0 0 0 2 2 2 38 24 25 0 0 0 0 3 5 6 0 15 4 13 20 6 0 0 0 0
0 0 0 0 0 0 0 0 0 0 0 0 0 0 0 0 0 0 0 0 13 0 16 0 0 0 0 0 0 0 0 0 0 0 0 0 0 0 0 0 0 0 0 0
0 0 0 0 0 0 0 0 0 0 0 0 0 0 0 0 0 9 0 0 0 0 14 0 0 0 0 0 0 0 0 0 0 0 0 0 0 0 0 0 0 0 0 0
0 0 0 0 0 0 0 0 0 1 13 16 12 4 0 0 0 0 0 0 0 0 6 0 0 0 0 0 0 0 0 0 0 0 0 0 0 0 0 0 0 0 0 0
0 0 1 6 0 0 0 0 0 0 0 2 11 11 7 0 0 0 0 7 3 16 15 5 10 10 11 4 0 0 0 0 0 0 0 0 0 0 0 0 0 0 0 0
3 5 2 0 0 0 0 0 0 0 0 7 30 25 23 18 17 5 2 0 16 21 47 48 28 16 22 12 5 1 0 0 0 0 0 0 0 0 0 0 0 0 0 0
0 0 0 0 0 0 0 0 0 0 0 0 0 0 0 0 2 0 1 9 21 22 31 27 24 6 18 22 8 4 0 0 0 0 0 0 0 0 0 0 0 0 0 0

GFSNGP_con_mlcape_015.txt.gz
CAPE
0 0 0 0 0 0 0 0 0 0 7 14 23 26 2 0 0 0 0 68 481 635 1029 1361 1233 1411 1331 1076 1158 1066 1310 1446 1717 2295 2554 2596 2549 2874 3013 2613 1891 968 626 448
0 0 0 0 0 0 0 0 0 0 0 0 3 4 11 0 0 0 0 2 560 764 975 1822 1743 1980 2056 1804 1872 1719 2036 1964 2165 2689 2602 2593 2719 2904 2917 2622 1840 1079 629 200
0 2 37 23 0 0 0 0 0 0 0 0 0 0 1 0 0 0 0 0 60 724 1080 1573 1820 2399 2323 2516 2281 2322 2429 3054 2730 3306 3302 3338 3148 2999 2818 2581 1614 944 520 267
12 44 52 0 26 8 1 5 5 3 0 0 0 0 0 0 0 0 0 0 0 635 1099 1625 1866 1983 2153 2401 2752 2835 3089 2943 3250 3314 3815 3718 3331 3058 2840 2072 1312 1023 546 170
28 22 37 40 188 213 228 39 12 4 15 0 0 0 0 0 0 0 0 0 15 868 1107 1760 2061 2293 2480 2557 2847 3021 3146 3236 3346 3503 3504 3660 3321 2851 2461 1651 1306 920 531 103
95 51 64 133 328 109 239 3 15 106 76 7 0 0 0 0 0 0 110 113 154 1054 1240 1951 2223 2154 2506 2506 2656 2820 2887 3047 3150 3258 3399 3214 2930 2496 2212 1737 1128 634 366 125
66 79 64 484 155 130 81 107 708 567 471 223 47 0 0 166 0 13 252 206 1166 1384 1754 2325 2128 1990 2454 2374 2412 2292 2228 2443 2775 2975 3081 3017 2710 2171 1775 1562 1098 676 376 263
58 59 67 291 268 212 499 620 722 708 590 479 331 0 369 612 625 651 623 859 1431 1593 1841 2053 1997 2200 2368 2063 2022 2122 2295 2540 2884 3111 2900 2671 2320 1986 1551 998 679 511 357 362
140 114 378 208 297 417 528 787 824 819 801 738 500 669 784 1028 1246 1433 1480 1348 1425 1649 1811 1705 1788 1880 2069 2655 2564 2577 2679 2882 3131 2931 2356 2093 1927 1475 1184 743 577 438 463 642
556 374 96 91 212 469 722 791 971 1080 964 935 1033 955 967 1002 1047 1222 1448 1529 1579 1670 1791 2135 2287 2512 3033 2796 2776 2801 3019 2701 2290 1777 1458 1366 1335 1027 786 703 623 659 835 727
606 169 112 19 55 164 163 251 525 466 565 1100 1135 1150 1035 1009 917 782 756 796 1001 1294 1620 1930 2206 2176 2267 2460 2636 2604 1871 1420 1272 1048 1082 675 265 416 579 223 301 492 540 659
175 175 85 3 0 0 0 0 0 2 0 54 215 229 398 666 1029 961 810 803 817 1068 1464 1883 2072 2152 2233 2400 2243 1970 1683 1472 1287 1132 603 360 185 43 0 0 0 0 0 65
96 110 0 0 0 0 0 0 0 0 0 0 0 0 0 0 1 20 476 802 883 1058 1326 1638 1758 1831 1938 2111 2029 2021 1711 1571 1221 1130 826 808 661 504 222 0 0 0 0 0
0 0 0 0 0 0 0 0 0 0 0 0 0 0 0 0 0 0 0 12 400 1212 1379 1338 1395 1554 1569 1756 1672 1413 1184 625 640 702 517 344 252 106 51 2 0 0 0 0
5 1 5 1 0 0 0 0 0 0 0 0 0 0 0 0 0 0 0 0 0 152 1159 1334 1285 1233 1184 1423 1478 1213 690 561 532 399 244 71 48 134 19 9 12 0 0 0
6 0 0 0 1 0 0 0 0 0 0 0 0 0 0 0 0 0 0 0 0 0 1 598 1321 1144 1194 1277 1122 859 507 160 89 84 11 1 9 6 14 35 90 26 0 0
0 0 0 0 1 0 0 1 11 0 0 0 0 0 0 0 0 0 0 0 0 0 0 136 845 1048 1041 969 638 240 98 17 0 37 1 71 114 101 80 91 127 132 59 7
0 0 0 5 26 20 1 0 33 33 5 0 0 0 0 0 0 0 0 0 0 2 17 127 804 790 689 451 213 54 58 59 0 86 67 60 45 61 95 94 84 95 54 6
22 0 0 0 26 34 45 11 27 34 16 3 4 0 2 10 32 51 38 29 32 25 71 396 328 606 653 407 199 149 103 76 51 62 68 46 83 129 120 117 119 87 23 4
30 23 7 11 19 21 16 30 35 27 23 17 23 13 17 18 20 35 36 46 74 91 117 160 302 399 423 164 30 151 100 84 84 102 109 156 111 102 85 43 63 44 9 11
14 17 11 1 5 25 23 15 2 30 20 36 26 21 21 24 40 39 46 41 84 79 106 119 136 120 48 15 21 120 101 121 84 91 49 73 90 69 74 45 12 7 8 15
18 14 13 14 15 18 17 27 37 74 50 49 31 23 27 38 58 42 70 29 17 2 22 59 22 0 23 1 86 45 35 23 24 47 54 39 25 29 41 47 26 19 23 11
18 13 11 24 31 24 18 9 1 18 37 42 44 26 26 31 40 24 21 52 25 15 6 0 0 0 0 1 27 20 19 1 0 0 0 0 0 0 1 4 6 6 21 22
32 40 54 35 28 25 12 2 2 0 0 40 18 16 0 11 3 27 15 1 0 0 5 0 0 0 0 0 0 0 1 0 0 0 0 0 0 0 0 0 0 3 7 1
64 47 36 38 21 30 23 6 22 8 10 54 48 41 42 21 22 5 29 11 0 0 10 0 0 0 0 1 28 19 17 15 10 4 1 0 0 0 0 0 0 1 7 8
5 29 35 30 21 19 24 32 23 14 22 24 24 29 28 23 15 18 48 17 23 15 13 77 29 6 10 15 24 21 19 36 14 6 0 0 0 1 0 0 0 0 0 0
1 0 4 4 2 0 0 0 6 4 18 1 0 20 32 41 47 22 20 44 32 16 27 21 27 14 32 43 34 24 37 29 19 16 16 14 8 2 2 2 0 0 0 0

GFSNGP_con_mlcape_021.txt.gz
CAPE
0 0 0 0 0 0 0 0 0 0 0 0 0 12 47 54 22 14 0 47 282 509 437 729 866 1023 1206 1419 1635 2451 2702 2843 2639 2697 2802 2840 2830 3046 2445 2472 2578 1915 1351 936
0 0 0 0 0 0 0 0 0 0 0 0 0 0 83 63 75 17 0 261 299 603 514 462 615 813 1066 1378 1568 1753 2507 2611 2701 2574 2731 2708 2819 2813 3142 2618 2717 2370 1746 1327
0 0 0 0 0 0 0 0 0 0 0 0 0 0 19 203 84 2 9 108 346 420 718 573 636 748 952 1190 1486 1626 1851 2466 2547 2530 2573 2618 2674 2760 2952 3106 3006 2911 2394 1711
0 0 2 0 0 0 0 0 0 0 0 0 0 0 0 0 0 0 0 97 307 270 604 1164 838 813 931 1109 1366 1475 1505 1995 2287 2391 2410 2579 2723 2846 2834 3126 3123 3149 2880 2239
0 0 0 0 0 0 0 0 0 5 0 0 0 0 0 0 0 0 0 0 25 502 451 866 1540 1130 949 1026 1206 1262 1316 1441 1930 2130 2324 2482 2708 2774 2980 2960 3194 3275 2980 2455
0 0 0 0 0 0 108 5 265 114 76 45 15 0 8 325 235 81 1 0 0 10 178 740 1047 1759 1469 1152 1125 1197 1232 1505 1743 1939 2184 2500 2777 2891 3025 3172 3302 3224 2813 2346
0 0 0 0 0 222 118 106 496 444 443 322 104 238 204 121 59 119 252 4 0 0 0 283 774 1655 1948 1628 1368 1476 1618 1705 2104 2249 2444 2830 2955 3108 3337 3261 3003 2808 2463 1768
7 10 3 40 93 243 187 615 618 477 398 248 222 104 9 39 131 8 306 679 110 0 0 22 748 1596 2100 2487 2092 1853 2805 2589 3352 3416 3682 3718 3559 3505 3153 2765 2752 2259 1796 1253
30 356 410 739 742 814 1210 1049 1336 1042 1088 1011 1163 1273 1534 1714 1835 1740 1609 1980 1645 790 757 1259 1636 2099 2322 2968 3462 3229 2925 3490 3884 4090 4221 3878 3705 2960 2348 2621 2067 1625 1389 1111
14 173 1 48 68 1136 912 878 929 1050 1216 1112 886 1204 1406 1697 2034 2290 2531 2752 2949 2960 3149 3461 3367 3264 3345 3490 3532 3616 3635 3666 3463 3468 3304 3068 2655 2255 2047 1684 1551 1279 1115 889
27 40 279 769 982 654 519 215 305 263 400 743 841 829 956 1168 1562 2047 2428 2834 3049 3166 3223 3401 3599 3714 3604 3562 3533 3392 3265 3028 2742 2415 2075 1584 850 1038 1399 968 1083 1028 839 714
62 3 0 13 20 29 35 30 18 34 30 4 26 49 243 421 642 1211 1856 1745 2093 3011 3243 3433 3452 3273 3145 3100 2963 2845 2474 1873 1627 1656 1301 984 782 358 0 43 230 498 615 648
35 0 0 0 0 0 0 0 0 0 0 0 0 0 0 4 85 295 560 1468 1790 1796 2475 2912 2850 2886 2806 2631 2329 2052 1711 1509 1437 1211 1038 871 690 602 472 0 0 1 15 90
0 0 0 1 0 0 0 0 0 0 0 0 0 0 0 0 1 2 112 566 950 1490 1740 1948 2103 2363 2009 1862 1831 1663 1457 1293 1188 879 786 732 603 334 43 34 5 0 0 0
0 0 0 0 0 0 0 0 0 0 0 0 0 0 0 0 0 0 0 148 997 1275 1445 1911 2038 2193 2109 1830 1714 1576 1139 1011 836 690 544 488 457 220 46 1 0 0 0 0
0 0 0 0 0 0 0 0 0 0 0 0 0 0 0 0 0 0 0 15 213 890 1077 1299 1672 1840 1429 1258 1304 1663 1204 1275 1072 924 883 761 650 407 2 0 0 0 0 0
4 1 0 0 0 0 0 0 0 0 0 0 0 0 0 0 0 0 9 63 152 570 1096 1070 1339 1500 1354 1269 1077 586 111 131 1014 685 717 543 445 310 120 16 0 0 0 0
3 0 0 0 0 0 0 0 0 0 0 0 0 0 0 1 10 0 12 1 7 166 659 675 635 690 702 452 540 328 281 66 21 34 42 41 14 8 18 18 12 14 6 0
17 0 0 0 3 0 0 0 0 0 0 0 0 0 0 11 28 69 169 185 45 5 40 130 384 444 427 155 59 1 35 116 32 26 56 65 83 19 9 38 23 13 0 0
33 27 8 20 36 9 9 34 43 43 33 32 28 44 53 26 15 46 62 72 63 103 146 121 274 155 240 172 37 38 19 45 46 26 30 4 4 0 0 3 24 22 7 0
36 58 56 37 11 33 53 42 49 46 67 58 36 56 60 91 82 81 78 62 23 18 29 9 5 26 13 133 48 20 17 21 50 27 0 0 0 11 28 14 16 0 5 4
75 40 31 52 30 40 41 29 34 45 38 28 21 21 36 49 27 5 0 0 0 0 0 0 0 0 0 4 35 15 9 24 34 11 6 14 14 28 14 14 40 30 12 33
11 35 83 53 3 2 22 19 54 109 55 17 4 52 18 26 24 0 2 0 0 0 0 0 0 0 0 0 0 41 31 28 6 4 1 0 0 0 0 4 23 56 54 46
59 16 6 0 7 31 1 1 0 42 38 1 34 2 8 4 33 44 4 0 0 0 0 0 0 0 0 0 0 0 0 0 0 0 0 0 0 0 0 0 0 0 3 34
21 1 0 0 0 0 0 0 0 0 4 0 0 0 2 6 9 50 43 22 0 0 34 0 0 0 0 0 0 0 3 0 0 0 0 0 0 0 0 0 0 0 0 0
0 0 0 0 0 0 0 0 0 0 0 0 0 0 0 0 2 0 3 20 17 12 25 57 0 0 0 0 0 0 0 0 3 1 3 5 2 0 0 0 0 0 0 0
0 0 0 0 0 0 0 0 0 0 0 0 0 0 0 0 0 0 0 0 0 1 3 5 0 0 0 0 0 0 6 1 0 0 0 2 5 6 6 0 0 0 0 0

GFSNGP_con_mlcape_024.txt.gz
CAPE
0 0 0 0 0 0 0 0 0 0 0 0 0 0 0 0 0 34 15 4 5 148 222 434 580 656 941 1429 1940 2090 2256 2254 1996 1943 2176 2339 2111 1933 1737 1866 1780 1478 1252 1085
0 0 0 0 0 0 0 0 0 0 0 0 0 0 0 0 0 0 10 23 0 148 316 401 664 746 829 1306 2015 2264 2345 2325 2348 2296 2225 2255 2370 2325 2083 1849 2097 1723 1484 1311
0 0 0 0 0 0 0 0 0 0 0 0 0 0 0 0 0 0 0 0 3 158 251 539 779 864 871 1179 1921 2327 2318 2534 2524 2501 2473 2448 2442 2496 2540 2259 2048 2014 1780 1645
0 0 0 0 0 0 0 0 0 0 0 0 0 0 0 0 0 0 0 0 182 342 498 729 815 931 1068 1105 1547 2148 2268 2467 2630 2544 2464 2561 2611 2565 2567 2747 2452 2302 1997 1782
0 0 0 0 0 0 0 0 0 0 0 0 0 0 0 0 0 0 0 0 1 396 491 510 618 746 964 1203 1434 1718 2050 2274 2486 2508 2431 2517 2497 2517 2591 2733 2821 2699 2577 2184
0 0 0 0 0 0 0 0 4 0 0 0 0 0 0 1 0 0 0 0 0 194 799 852 590 666 793 983 1306 1518 1767 1812 2268 2428 2400 2348 2463 2472 2577 2644 2790 2844 2820 2465
0 2 0 0 0 5 0 4 189 53 5 0 0 0 3 24 2 4 0 0 8 0 113 396 972 827 753 806 935 1269 1540 1732 1896 2350 2335 2332 2396 2541 2575 2621 2745 2813 2687 2359
0 0 0 2 6 0 73 519 238 182 53 13 172 639 949 800 206 68 3 0 62 44 0 3 275 1029 768 827 858 1055 1277 1425 1469 1888 2193 2230 2317 2537 2564 2665 2559 2318 2102 1789
0 1 0 146 690 837 869 643 654 445 554 409 521 749 1107 1376 1717 1854 1456 1402 1243 137 8 0 84 753 837 1072 1041 1001 1155 1151 1444 1644 1884 2190 2409 2607 2612 2416 2154 1787 1641 1211
0 8 33 5 50 338 660 608 623 648 634 755 992 1447 1610 1739 1763 1848 2271 2490 2416 1618 857 230 271 330 984 1063 1211 1320 1442 1533 2003 2196 2392 2614 2650 2541 2326 2139 1957 1628 1419 1743
0 1 52 0 0 6 22 156 298 77 252 468 859 1036 1228 1462 1672 1981 2335 2608 2775 2901 2669 2631 2507 1247 1760 2113 1869 2198 2411 2708 2975 2755 2555 1851 1049 1299 1525 1119 1427 1433 1401 1034
3 7 0 0 0 0 0 0 0 22 63 14 199 402 414 648 832 1292 1571 1547 1353 1009 1094 1456 1536 2041 2856 2785 2620 2368 2311 2200 1955 1508 1068 613 353 256 2 129 15 762 735 755
0 1 0 0 0 0 0 0 0 0 0 0 0 14 52 55 172 549 734 934 1153 889 409 546 0 1 734 2058 2280 2381 2116 1736 1095 739 834 494 232 201 95 0 1 155 282 279
2 5 0 0 0 0 0 0 0 0 0 0 0 0 0 0 6 167 310 320 134 23 0 292 537 106 705 784 832 957 1025 1082 703 144 220 41 78 100 245 366 290 38 0 14
14 0 1 0 0 0 0 0 0 0 0 0 0 0 0 0 0 48 408 445 489 423 475 571 629 624 746 548 679 802 596 561 593 419 364 186 66 43 77 53 13 0 0 0
0 0 0 0 0 0 0 0 0 0 0 0 0 0 0 0 0 0 75 184 276 247 295 289 357 268 419 530 661 693 658 591 538 462 395 259 211 118 20 9 0 0 0 0
0 0 0 0 0 0 0 0 0 0 0 0 0 0 0 0 0 0 0 24 197 185 92 148 121 144 139 403 565 580 573 489 339 289 262 222 143 26 0 0 0 0 0 0
0 0 0 0 0 0 0 0 3 0 0 0 0 0 0 0 0 0 0 0 4 84 32 29 21 32 35 2 16 5 310 695 558 485 346 229 132 9 0 0 0 0 0 0
4 17 9 9 12 2 1 2 0 6 3 0 0 0 0 1 4 3 0 0 0 0 6 10 47 46 7 1 0 2 13 148 122 142 118 122 188 211 58 27 0 0 0 0
31 44 50 63 40 38 47 26 12 17 25 39 16 12 0 0 0 1 0 0 0 0 0 0 0 1 5 0 0 0 12 3 0 0 0 2 0 0 34 36 5 0 0 0
33 37 48 43 52 35 37 28 28 26 55 45 53 32 30 28 41 7 0 0 0 0 0 0 0 0 0 0 0 0 19 15 5 0 2 1 0 2 10 27 22 24 8 0
29 38 22 17 13 35 34 14 54 5 6 33 36 50 31 11 11 7 0 0 0 0 0 0 0 0 0 0 1 33 60 66 54 23 3 6 6 3 2 0 13 13 3 1
0 0 0 0 0 0 0 10 3 0 3 6 0 21 22 4 0 3 0 0 0 0 0 0 0 0 0 0 0 17 12 41 23 22 6 0 0 0 0 1 11 14 18 13
0 0 0 0 0 0 0 0 0 0 0 0 0 0 0 0 2 2 0 0 0 0 0 0 0 0 0 0 0 1 2 1 0 1 0 0 0 0 0 0 1 21 40 36
0 0 0 0 0 0 0 0 0 0 0 0 0 0 0 0 0 0 0 0 0 0 0 0 0 0 0 0 0 0 0 0 0 0 0 0 0 0 0 0 0 0 1 33
0 0 0 0 0 0 0 0 0 0 0 0 0 0 0 0 0 0 0 0 0 0 0 0 0 0 0 0 0 0 0 0 0 0 0 0 0 0 0 0 0 0 0 0
0 0 0 0 0 0 0 0 0 0 0 0 0 0 0 0 0 0 0 0 0 0 0 0 0 0 0 0 0 0 0 0 0 0 0 0 0 0 0 0 0 0 0 0

GFSNGP_con_mlcape_027.txt.gz
CAPE
0 0 0 0 0 0 0 0 0 0 0 0 0 0 0 0 0 0 0 0 0 0 0 0 17 144 439 824 1133 1114 1227 1392 1327 1307 1316 1344 1273 1248 1254 1280 1158 1148 1130 822
0 0 0 0 0 0 0 0 0 0 0 0 0 0 0 0 0 0 0 0 0 0 45 70 99 141 382 824 1322 1369 1372 1461 1593 1562 1570 1573 1571 1474 1373 1312 1325 1090 1137 1228
0 0 0 0 0 0 0 0 0 0 0 0 0 0 0 0 0 0 0 0 0 0 18 36 91 218 383 716 1129 1611 1565 1637 1674 1603 1632 1802 1933 1832 1649 1534 1511 1242 1097 1110
0 0 0 0 0 0 0 0 0 0 0 0 0 0 0 0 0 0 0 0 0 0 30 153 147 320 460 751 1170 1579 1704 1876 1969 1835 1733 1763 1880 1977 1953 1775 1654 1746 1416 1208
0 0 0 0 0 0 0 0 0 0 0 0 0 0 0 0 0 0 0 0 0 0 0 79 208 434 670 789 1157 1650 1733 1887 2024 2062 1977 1976 1912 1930 2080 2118 1894 1799 1664 1397
0 0 0 0 0 0 0 0 0 0 0 0 0 0 0 0 0 0 0 0 0 0 33 175 397 695 802 800 1078 1500 1790 1884 2070 2155 2142 2104 2053 2088 2168 2238 2289 2092 1957 1704
0 0 0 0 0 0 0 0 0 0 0 0 0 0 0 0 0 0 0 0 0 0 42 191 460 724 850 905 927 1213 1675 1983 2152 2315 2280 2200 2210 2211 2261 2278 2392 2470 2258 2139
0 0 0 0 6 32 8 0 0 0 0 0 0 0 2 0 9 0 8 58 176 0 0 146 439 598 812 930 1039 1135 1345 1607 1918 2092 2353 2341 2267 2371 2393 2466 2561 2661 2620 2465
0 0 0 0 0 0 4 29 99 0 22 197 226 250 334 366 480 591 738 1109 1533 1307 1295 732 0 664 556 773 940 1027 1191 1309 1423 1721 2208 2313 2273 2307 2332 2421 2519 2565 2510 2167
49 15 0 28 45 4 8 83 86 222 497 771 633 944 864 932 1043 1419 1897 1717 2000 1894 1826 1866 2034 1582 440 893 714 718 927 1150 1284 1327 1812 2122 2186 2299 2434 2564 2569 2287 1900 1577
47 21 0 37 0 0 0 0 76 111 239 476 788 831 907 1064 1276 1644 1781 1604 1682 1813 1726 1590 1245 1553 1453 1367 1474 1038 845 883 1025 1152 1454 1694 1235 1973 2495 2411 2351 1873 1574 1034
6 8 0 0 0 0 0 0 1 6 36 20 193 553 684 843 776 981 1313 1286 1205 950 841 523 7 0 26 342 877 1159 1461 1023 1188 1133 888 695 885 869 791 1193 920 693 587 201
126 0 0 0 0 0 0 0 0 0 0 0 0 60 178 297 319 263 235 134 6 6 272 312 225 31 0 0 0 4 158 529 723 561 578 876 793 662 560 5 3 0 0 3
136 0 0 7 0 0 0 0 0 0 0 0 0 0 108 246 351 322 394 502 569 544 511 441 528 630 331 0 2 184 119 4 266 300 608 700 411 256 6 16 11 0 0 0
133 7 0 1 0 0 0 0 0 0 0 0 0 0 0 23 106 164 243 384 428 388 275 35 243 198 126 183 284 22 87 63 191 494 150 102 18 0 0 0 2 0 1 0
25 1 0 0 0 0 0 0 0 0 0 0 0 0 0 0 0 43 40 79 242 151 42 65 101 127 257 231 177 0 0 70 175 9 4 0 0 0 0 0 0 2 19 3
0 0 0 0 0 0 0 0 0 0 0 0 0 0 0 0 0 0 1 13 14 13 0 0 0 0 0 38 110 82 98 136 94 21 1 0 21 52 0 0 19 21 20 0
0 0 0 0 0 0 0 0 0 0 0 0 0 0 0 0 0 0 0 0 0 0 0 0 0 0 0 0 5 205 163 217 241 174 86 73 77 98 71 30 9 3 0 0
0 0 0 0 0 0 0 0 0 0 4 1 0 0 0 0 0 0 0 0 0 0 0 0 0 0 0 0 0 75 147 160 139 112 97 57 25 19 14 3 0 0 0 0
6 5 5 30 19 15 16 12 18 19 3 0 0 1 0 0 0 0 0 0 0 0 0 0 0 0 0 0 0 0 0 2 2 12 52 68 46 27 28 19 5 4 0 0
5 1 5 9 0 2 16 9 28 21 16 23 33 25 31 17 0 0 0 0 0 0 0 0 0 0 0 0 0 0 0 0 0 0 2 36 34 48 57 39 20 11 0 0
0 0 0 0 0 0 0 0 2 4 9 26 10 10 8 0 0 0 0 0 0 0 0 0 0 0 0 0 0 8 17 4 6 1 1 4 13 34 29 31 10 3 0 0
0 0 0 0 0 0 0 0 0 0 0 0 0 1 0 0 0 0 0 0 0 0 0 0 0 0 0 0 0 1 13 6 13 25 22 25 40 26 8 3 8 11 10 0
0 0 0 0 0 0 0 0 0 0 0 0 0 0 0 0 0 0 0 0 0 0 0 0 0 0 0 0 0 0 0 0 1 12 7 2 1 3 23 9 24 19 17 0
0 0 0 0 0 0 0 0 0 0 0 0 0 0 0 0 0 0 0 0 0 0 0 0 0 0 0 0 0 0 0 0 0 0 0 0 0 0 0 0 0 0 7 9
0 0 0 0 0 0 0 0 0 0 0 0 0 0 0 0 0 0 0 0 0 0 0 0 0 0 0 0 0 0 0 0 0 0 0 0 0 0 0 0 0 0 0 0
0 0 0 0 0 0 0 0 0 0 0 0 0 0 0 0 0 0 0 0 0 0 0 0 0 0 0 0 0 0 0 0 0 0 0 0 0 0 0 0 0 0 0 0

GFSNGP_con_mlcape_030.txt.gz
CAPE
0 0 0 0 0 0 0 0 0 0 0 0 0 0 0 0 0 0 0 0 0 0 0 0 0 7 26 111 248 446 538 615 711 795 817 832 897 995 1032 989 901 779 622 905
0 0 0 0 0 0 0 0 0 0 0 0 0 0 0 0 0 0 0 0 0 0 0 0 0 20 88 192 384 587 620 646 812 937 902 879 871 866 975 1076 1133 943 804 787
0 0 0 0 0 0 0 0 0 0 0 0 0 0 0 0 0 0 0 0 0 0 0 0 3 56 128 299 593 697 718 780 931 1058 1104 1116 1137 1069 986 1020 1125 1115 1034 854
0 0 0 0 0 0 0 0 0 0 0 0 0 0 0 0 0 0 0 0 0 0 0 0 0 53 205 323 633 784 858 970 1184 1285 1254 1334 1358 1278 1204 1165 1135 1240 1194 1148
0 0 0 0 0 0 0 0 0 0 0 0 0 0 0 0 0 0 0 0 0 0 0 0 0 49 178 350 651 1015 1165 1247 1342 1479 1473 1517 1520 1517 1530 1411 1306 1317 1313 1242
0 0 0 0 0 0 0 0 0 0 0 0 0 0 0 0 0 0 0 0 0 0 0 0 2 79 160 337 608 872 1327 1405 1534 1552 1503 1484 1570 1706 1816 1794 1676 1580 1586 1479
0 0 0 0 0 0 0 0 0 0 0 0 0 0 0 0 0 0 0 0 0 0 0 0 0 57 206 362 595 866 1274 1617 1759 1782 1721 1607 1652 1716 1801 1983 1999 1845 1772 1726
0 0 0 0 0 0 0 0 0 0 0 0 0 0 0 0 0 0 0 42 69 0 0 0 7 308 458 559 697 943 1343 1579 1765 1891 1967 2018 1990 1974 1963 2002 2089 2146 2106 1943
0 0 0 0 0 0 0 0 0 0 0 0 0 0 0 60 532 780 845 929 1063 712 987 1301 0 157 476 408 643 838 1002 1403 1733 1981 2200 2254 2305 2195 2129 2199 2271 2275 2211 2239
0 0 0 0 0 0 0 1 0 1 0 183 5 441 749 1114 1336 1489 1754 2019 1853 1468 1325 1470 1594 1419 1217 1121 1007 660 686 959 1262 1763 2093 2347 2347 2272 2223 2235 1749 2207 2317 2238
1 0 21 11 0 0 23 32 5 13 136 143 571 766 949 1012 1010 894 674 472 457 372 152 1 0 0 0 134 790 1171 999 660 811 1189 1532 2060 2000 1920 2293 2264 2288 2381 2377 2225
0 0 12 29 3 0 70 59 0 66 184 54 59 244 261 324 227 196 127 28 230 220 188 60 0 0 0 0 0 514 1066 1047 845 962 1067 1159 1227 978 750 1606 1855 1831 1378 951
2 2 58 46 0 0 0 0 0 3 30 77 67 83 99 82 108 125 151 134 90 160 217 326 447 284 46 0 3 3 1 835 1114 840 719 792 947 986 935 267 844 691 387 253
11 98 236 120 2 1 0 3 0 0 0 10 63 110 135 181 172 160 143 169 114 77 66 95 155 327 177 295 21 0 11 61 346 735 747 632 771 856 418 289 133 31 0 0
15 113 126 16 4 0 0 0 0 0 0 0 16 69 114 118 137 176 130 74 35 17 60 199 266 310 352 30 0 0 0 1 204 389 364 279 193 68 7 3 2 1 0 0
129 88 14 7 20 0 0 0 0 0 0 0 0 9 25 57 66 101 50 40 56 8 0 0 0 3 152 313 19 0 0 54 54 67 13 12 0 0 0 2 0 0 0 0
3 12 5 3 2 1 0 0 0 1 48 0 0 0 0 0 16 1 0 0 0 0 0 0 0 0 1 145 171 91 76 39 0 0 0 0 0 0 0 0 0 0 0 0
12 0 1 0 0 0 0 0 1 2 0 0 0 0 0 0 0 0 0 0 0 0 0 0 0 0 0 39 98 121 56 17 3 1 1 2 0 0 0 0 0 0 0 2
12 35 21 24 24 24 19 15 13 26 0 0 0 0 0 0 0 0 0 0 0 0 0 0 0 0 0 0 6 25 39 13 30 1 0 1 1 0 0 0 0 4 0 0
48 19 3 0 0 3 6 8 15 10 7 0 0 0 0 0 0 0 0 0 0 0 0 0 0 0 0 0 0 0 0 17 14 4 13 24 22 17 10 1 0 0 0 0
1 0 0 0 0 0 4 9 3 0 1 0 0 0 0 0 0 0 0 0 0 0 0 0 0 0 0 0 0 0 0 0 0 11 36 15 10 2 0 0 0 0 9 0
0 0 0 0 0 0 0 0 0 0 0 0 0 0 0 0 0 0 0 0 0 0 0 0 0 0 0 0 0 1 0 0 0 0 0 0 7 24 21 19 9 2 0 0
0 0 0 0 0 0 0 0 0 0 0 0 0 0 0 0 0 0 0 0 0 0 0 0 0 0 0 0 0 0 0 0 0 0 5 20 14 23 3 1 1 0 2 0
0 0 0 0 0 0 0 0 0 0 0 0 0 0 0 0 0 0 0 0 0 0 0 0 0 0 0 0 0 0 0 0 0 0 0 0 0 2 1 5 6 15 17 28
0 0 0 0 0 0 0 0 0 0 0 0 0 0 0 0 0 0 0 0 0 0 0 0 0 0 0 0 0 0 0 0 0 0 0 0 0 0 0 0 0 0 0 0
0 0 0 0 0 0 0 0 0 0 0 0 0 0 0 0 0 0 0 0 0 0 0 0 0 0 0 0 0 0 0 0 0 0 0 0 0 0 0 0 0 0 0 0
0 0 0 0 0 0 0 0 0 0 0 0 0 0 0 0 0 0 0 0 0 0 0 0 0 0 0 0 0 0 0 0 0 0 0 0 0 0 0 0 0 0 0 0

GFSNGP_con_mlcape_033.txt.gz
CAPE
0 0 0 0 0 0 0 0 0 0 0 0 0 0 0 0 0 0 0 0 0 0 0 0 32 167 236 346 547 678 896 986 1093 1253 1410 1402 1394 1418 1382 1374 1276 1343 1316 1408
0 0 0 0 0 0 0 0 0 0 0 0 0 0 0 0 0 0 0 0 0 0 0 0 3 107 206 300 419 725 804 796 1095 1397 1504 1438 1415 1413 1409 1376 1397 1403 1354 1358
0 0 0 0 0 0 0 0 0 0 0 0 0 0 0 0 0 0 0 0 0 0 0 0 0 27 157 302 482 664 781 911 1065 1283 1500 1524 1561 1564 1544 1503 1483 1420 1306 1364
0 0 0 0 0 0 0 0 0 0 0 0 0 0 0 0 0 0 0 0 0 0 0 0 0 2 166 457 500 625 857 996 1146 1256 1391 1483 1499 1460 1610 1684 1648 1592 1455 1404
0 0 0 0 0 0 0 0 0 0 0 0 0 0 0 0 0 0 0 0 0 0 0 0 0 0 131 455 697 853 944 1042 1124 1089 1175 1452 1486 1501 1587 1596 1675 1765 1835 1698
0 0 0 0 0 0 0 0 0 0 0 0 0 0 0 0 0 0 0 0 0 0 0 0 0 5 151 351 700 816 1013 1092 1265 1374 1444 1516 1661 1778 1866 1818 1732 1792 1815 1836
0 0 0 0 0 0 0 0 0 0 0 0 0 0 0 0 0 0 0 0 0 0 0 0 0 21 129 390 623 777 1345 1670 1732 1736 1745 1821 1950 2046 2164 2122 2102 1942 1946 1963
0 0 0 0 0 0 0 0 0 0 0 0 0 0 0 0 0 0 0 0 0 0 0 0 53 67 325 553 918 1244 1435 1690 1908 1936 1935 1999 2137 2225 2260 2321 2418 2326 2248 2168
0 0 0 0 0 0 0 0 0 0 0 0 0 0 0 0 88 448 764 700 1202 837 80 32 324 715 623 709 901 1097 1394 1624 1870 2154 2275 2293 2212 2093 2142 2365 2488 2512 2478 2221
1 0 0 0 0 0 13 0 8 19 2 0 0 59 3 656 963 1573 1530 1450 1884 1747 1125 629 660 867 1038 1134 979 1152 1333 1656 2007 2213 2378 2584 2613 2305 2340 2400 2432 2485 2610 2455
1 0 0 0 0 0 0 0 0 2 19 17 210 616 780 1133 1419 1221 800 385 150 54 5 7 5 33 154 854 1485 1261 1167 1232 1491 1969 2100 2651 2674 2722 2365 2094 2651 2630 2579 2439
0 0 0 0 0 4 42 1 0 0 10 32 226 583 817 740 488 463 515 464 337 172 31 0 0 0 0 0 370 1069 840 828 946 1285 1740 2180 2614 1989 1470 1655 2269 2234 2272 2444
0 0 0 0 0 0 14 64 0 0 15 76 55 45 13 10 67 82 238 297 333 309 312 298 371 241 1 107 139 164 214 338 682 843 1223 1260 1355 1448 1597 1341 1040 1387 1695 1360
9 4 0 0 0 87 20 28 9 3 40 51 55 50 65 72 88 104 166 195 177 307 288 175 238 161 440 167 127 43 30 2 173 421 847 821 782 910 904 1123 1301 469 5 461
3 0 0 0 202 103 32 3 1 35 33 56 88 117 68 69 38 26 22 3 1 3 7 47 214 211 365 46 4 0 2 20 279 125 125 209 185 204 141 252 422 47 2 1
0 0 0 10 32 22 12 15 17 24 37 37 8 27 29 15 11 0 0 0 1 0 0 8 29 75 276 346 33 46 103 8 202 7 0 0 0 0 0 0 1 0 0 0
2 52 35 3 12 13 0 0 0 0 0 2 4 2 0 0 0 0 0 0 0 0 0 0 7 145 216 295 206 168 96 20 1 237 156 16 0 0 0 0 0 0 0 0
16 51 47 54 1 12 41 60 57 16 1 0 0 0 0 0 0 0 0 0 0 0 0 0 0 0 101 211 340 353 115 67 48 2 0 0 0 2 0 0 1 0 0 0
2 15 19 8 20 18 16 1 3 11 11 0 0 0 0 0 0 0 0 0 0 0 0 0 0 0 0 0 141 336 338 123 18 17 1 1 3 1 2 3 2 3 3 1
4 3 4 2 3 28 49 19 18 6 0 0 0 0 0 0 0 0 0 0 0 0 0 0 0 0 0 0 0 33 204 231 47 3 2 7 2 3 2 2 3 4 1 4
0 1 3 1 1 0 0 0 0 0 0 0 0 0 0 0 0 0 0 0 0 0 0 0 0 0 0 0 0 0 17 13 22 51 24 14 1 0 1 2 0 0 3 3
0 0 0 0 0 0 0 0 0 0 0 0 0 0 0 0 0 0 0 0 0 0 0 0 0 0 0 0 0 0 0 7 1 0 0 1 1 1 0 1 1 0 0 0
0 0 0 0 0 0 0 0 0 0 0 0 0 0 0 0 0 0 0 0 0 0 0 0 0 0 0 0 0 0 0 0 0 0 0 0 0 0 0 0 2 1 1 0
0 0 0 0 0 0 0 0 0 0 0 0 0 0 0 0 0 0 0 0 0 0 0 0 0 0 0 0 0 0 0 0 0 0 0 0 0 0 0 0 0 0 2 2
0 0 0 0 0 0 0 0 0 0 0 0 0 0 0 0 0 0 0 0 0 0 0 0 0 0 0 0 0 0 2 0 0 0 0 0 0 0 0 0 0 0 0 0
0 0 0 0 0 0 0 0 0 0 0 0 0 0 0 0 0 0 0 0 0 0 0 0 0 0 0 0 0 0 0 0 0 0 0 0 0 0 0 0 0 0 0 0
0 0 0 0 0 0 0 0 0 0 0 0 0 0 0 0 0 0 0 0 0 0 0 0 0 0 0 0 0 0 0 0 0 0 1 1 2 1 0 0 0 0 0 0

GFSNGP_con_mlcape_036.txt.gz
CAPE
0 0 0 0 0 0 0 0 0 0 0 0 0 0 0 0 0 0 0 0 0 0 3 277 295 632 1233 1058 949 1045 1421 1484 1778 2038 2199 2131 2152 2301 2392 2477 2442 2466 2445 2502
0 0 0 0 0 0 0 0 0 0 0 0 0 0 0 0 0 0 0 0 0 0 51 332 468 815 931 1192 991 1032 1441 1675 1802 2149 2340 2293 2342 2452 2504 2492 2515 2568 2547 2599
0 0 0 0 0 0 0 0 0 0 0 0 0 0 0 0 0 0 0 0 0 0 0 17 242 527 745 1093 1123 1197 1371 1783 1944 2254 2419 2514 2564 2592 2576 2545 2573 2565 2556 2614
0 0 0 0 0 0 0 0 0 0 0 0 0 0 0 0 0 0 0 0 0 0 0 0 0 0 162 671 1341 1330 1563 1792 2016 2212 2419 2656 2709 2568 2637 2750 2635 2704 2678 2702
0 0 0 0 0 0 0 0 0 0 0 0 0 0 0 0 0 0 0 0 0 0 0 0 0 0 0 382 1041 1424 1592 1753 2068 2174 2217 2433 2764 2794 2722 2628 2693 2727 2653 2899
0 0 0 0 0 0 0 0 0 0 0 0 0 0 0 0 0 0 0 0 0 0 0 0 0 1 157 346 804 1502 1628 1851 2087 2211 2289 2366 2715 2805 2755 2644 2631 2552 2585 2903
0 0 0 0 0 1 0 9 0 0 0 0 0 6 27 36 3 0 0 0 0 0 0 0 0 128 29 370 764 1355 1683 1770 2107 2348 2479 2534 2773 2787 2675 2598 2396 2652 2785 2884
0 0 0 0 0 0 0 0 0 0 0 0 0 0 0 7 112 101 4 0 0 14 0 49 737 714 596 823 1133 1621 1757 1932 2269 2527 2366 2302 2721 2913 2827 2762 2802 2872 2741 2591
0 0 0 0 0 0 0 0 0 0 0 0 0 0 0 0 285 450 3 0 509 84 226 548 1227 1016 1016 1520 1753 1968 2097 2355 2583 2759 2707 2506 2771 2850 2849 2882 2523 2773 2792 2625
0 0 0 0 0 0 0 0 0 0 0 0 0 0 0 94 805 393 818 1580 1691 1921 1368 1666 2033 2047 2025 2359 2233 2198 2331 2657 2877 3077 3008 2903 2835 2968 2833 2810 2806 2589 2697 2657
5 0 0 0 0 0 0 0 0 0 0 0 0 0 0 576 1126 1345 2209 2305 2490 2423 2037 2060 2248 2481 2529 2436 2289 2497 2668 2739 2847 2809 2852 3120 3028 2881 2859 2820 2658 2808 2759 2916
0 1 13 7 6 2 0 0 0 0 0 0 0 0 113 1095 1582 2080 1820 1337 1088 885 732 502 560 807 1068 1949 2693 2389 2300 2165 2109 2145 2529 2676 2822 2995 2332 1999 1627 1591 1535 1714
1 0 6 6 1 0 0 0 0 0 0 0 0 32 782 1114 1360 1515 1604 1608 1090 870 1013 1197 969 944 894 1077 1106 1226 1498 1763 1942 1378 1448 1674 2161 2438 2618 2168 1755 1413 1398 1665
5 7 2 8 3 0 0 0 0 0 1 18 17 28 162 360 563 884 838 844 904 591 405 344 355 581 692 814 650 687 177 4 696 647 1006 1228 1060 1122 1168 1364 1485 1834 230 163
1 2 3 8 7 15 0 0 20 14 0 0 27 15 93 378 214 194 231 200 218 290 464 632 529 484 828 271 676 718 689 528 252 361 395 322 181 29 28 45 39 2 2 4
3 1 7 9 5 0 0 66 54 1 0 2 63 37 82 19 4 1 0 0 0 0 3 182 480 633 419 721 740 561 166 30 154 225 264 117 158 29 2 0 0 0 0 0
0 3 4 4 0 0 13 44 10 5 11 2 1 3 5 0 0 0 0 0 0 0 0 0 0 320 580 576 446 403 305 107 130 395 225 2 7 46 44 1 0 0 0 0
1 8 11 15 22 24 31 27 2 10 4 9 7 1 0 0 0 0 0 0 0 0 0 0 0 6 87 536 473 430 372 423 209 116 83 12 0 0 1 7 1 3 7 0
4 2 3 4 1 11 25 14 32 5 1 2 3 1 0 0 0 0 0 0 0 0 0 0 0 0 0 0 249 415 356 347 409 309 98 1 31 9 1 3 3 4 5 7
2 1 0 0 0 1 2 3 3 2 2 1 1 0 14 0 0 0 0 0 0 0 0 0 0 0 0 0 3 238 426 348 184 39 38 94 21 2 1 2 3 3 2 6
2 1 0 0 1 1 2 2 0 0 0 0 0 0 0 0 0 0 0 0 0 0 0 0 0 0 0 0 0 23 28 6 27 46 100 104 69 22 20 23 1 2 1 1
0 0 0 0 0 0 0 0 0 0 0 0 0 0 1 0 0 0 0 0 0 0 0 0 0 0 0 0 0 0 4 3 0 0 0 0 5 36 35 23 26 14 15 34
0 0 0 0 0 0 0 0 0 0 0 0 0 0 0 0 0 0 0 0 0 0 0 0 0 0 0 0 0 0 0 0 0 0 0 0 0 0 0 0 0 3 2 2
0 0 0 0 0 0 0 0 0 0 0 0 0 0 0 0 0 0 0 0 0 0 0 0 0 0 0 0 0 0 0 0 0 0 0 0 0 0 0 0 0 0 0 0
0 0 0 0 0 0 0 0 0 0 0 0 0 0 0 0 0 0 0 0 0 0 0 0 0 0 0 0 0 0 0 0 0 0 0 0 0 0 0 0 0 0 0 0
0 0 0 0 0 0 0 0 0 0 0 0 0 0 0 0 0 0 0 0 0 0 0 0 0 0 0 0 0 0 0 0 0 0 0 0 0 0 0 0 0 0 0 0
0 0 0 0 0 0 0 0 0 0 0 0 0 0 0 0 0 0 0 0 0 0 0 0 0 0 0 0 0 0 0 0 0 0 0 0 0 0 0 0 0 0 0 0

GFSNGP_con_mlcape_042.txt.gz
CAPE
0 0 3 0 0 0 0 0 0 0 0 0 0 0 0 0 0 0 23 57 384 523 1128 1289 1490 1871 1988 2008 2126 2101 2025 2719 2843 3069 3358 3277 3312 3384 3535 3148 3209 2969 3067 3189
0 0 0 0 0 0 0 0 0 0 0 0 0 0 0 0 0 0 0 0 0 0 34 147 1674 1840 1972 2044 2268 2218 2373 2410 2692 2857 3014 3339 3236 3251 3326 3601 3443 3537 3347 3111
0 0 0 0 0 0 0 0 0 0 0 0 0 0 0 0 0 0 0 0 0 0 0 58 261 1178 2125 2000 1888 2191 2296 2615 2705 2908 3131 3299 3405 3333 3306 3454 3602 3564 3618 3477
0 0 0 0 0 0 0 0 0 0 0 1 0 0 0 0 0 0 0 0 0 0 0 0 0 43 642 1932 2220 1882 2243 2101 2732 3045 3129 3380 3504 3496 3562 3513 3671 3614 3695 3690
0 0 0 1 0 0 0 0 0 0 0 0 0 0 0 0 0 0 0 0 0 0 0 0 3 234 644 852 1858 2329 2042 2501 2232 3021 3039 3381 3612 3606 3660 3753 3702 3882 3780 3771
0 0 0 0 0 0 0 0 7 0 0 0 0 0 71 207 92 89 211 324 431 396 262 99 208 48 850 954 1540 1834 1829 1830 2872 2459 3168 3345 3634 3841 3894 3864 3923 3855 3856 3826
0 0 0 0 0 0 0 22 8 8 12 0 5 92 102 41 3 28 155 243 344 450 427 247 37 56 46 416 483 1667 2309 2465 2448 3137 2832 3408 3570 3957 4005 3978 4004 3993 3956 3982
0 0 0 0 0 0 0 0 0 0 0 0 0 0 0 0 0 0 3 122 796 749 666 484 113 209 507 192 771 631 624 2458 3051 3250 3277 3252 3739 4026 4128 4146 4054 3981 4018 4030
0 0 0 0 0 0 0 0 0 0 0 0 0 0 0 0 0 0 0 44 562 1575 711 522 414 843 735 695 1437 1495 1835 2443 2819 3407 3691 3380 3700 3937 4165 4234 4163 4100 3966 3995
0 0 0 0 0 0 0 0 0 0 0 0 0 0 0 0 0 0 0 70 329 1457 2178 2068 1913 1974 1998 2083 2209 2915 2524 2960 3324 3393 3738 3850 3589 3925 3950 3964 4177 4115 4077 3950
0 0 0 0 0 0 0 0 0 0 0 0 0 0 0 0 0 0 23 111 726 2122 3043 3348 3095 3211 3250 3237 3016 3415 3477 3580 3821 3659 3764 3994 3696 3673 3867 3861 3793 3964 3833 3387
2 0 0 0 0 0 0 0 0 0 0 0 0 0 0 0 0 0 0 309 1549 2271 2082 2645 2341 3076 3226 3456 3585 3570 3558 3578 3526 3369 3626 3636 3995 3343 1083 1590 1546 1375 1291 2161
1 0 0 0 0 0 0 0 0 0 0 0 0 0 0 0 0 0 0 155 1140 2271 2228 2212 2031 1989 2161 2522 3147 3544 3807 3421 3327 3200 3422 3765 3797 3826 3357 571 2 205 218 55
0 2 2 0 0 0 0 0 0 0 0 0 0 0 0 0 0 0 0 11 915 2202 2100 1706 1520 1594 1705 1964 2505 2297 2319 2054 2779 2966 2633 3062 3282 3218 3402 2694 2398 1889 93 0
12 6 0 0 0 0 0 0 0 0 0 0 0 0 0 0 0 0 0 112 1370 1955 1589 1194 1181 1422 1452 1620 1773 1470 1207 1517 1465 1327 1149 1061 1056 1050 1056 1013 902 575 55 0
34 26 14 2 0 0 0 0 0 0 0 0 0 0 0 0 0 0 0 4 1141 1147 1159 965 578 798 1268 1326 1632 1090 865 762 952 842 824 425 380 186 198 95 55 27 2 0
0 2 0 0 1 0 0 0 0 0 0 0 0 0 0 0 31 70 1 268 305 558 551 693 703 796 1160 1376 760 399 467 644 593 516 434 481 306 92 43 72 99 138 0 0
9 9 3 13 2 1 0 5 20 16 2 0 0 2 2 23 78 12 8 38 35 19 58 203 540 284 207 541 758 552 572 639 469 89 144 149 232 288 246 89 14 2 3 0
36 8 12 7 5 6 5 7 4 4 2 2 2 2 2 1 2 0 2 1 0 0 0 0 4 0 0 32 157 110 218 316 212 97 62 26 1 2 0 0 0 1 1 2
16 26 14 8 0 0 5 6 1 6 3 2 2 3 1 1 2 2 0 1 2 2 0 0 0 0 0 0 0 0 0 0 2 0 5 18 21 0 0 0 3 6 0 1
19 22 25 9 10 17 23 21 38 45 17 8 2 3 3 2 2 3 2 0 4 1 0 0 0 0 0 0 0 0 0 0 0 0 0 0 0 0 0 0 0 0 0 0
0 12 10 12 4 7 5 5 1 8 32 3 0 0 0 1 0 1 3 3 1 0 1 0 0 0 0 0 0 0 0 0 0 0 0 0 0 1 1 0 2 2 0 0
0 2 26 2 13 4 0 1 3 1 0 1 11 12 3 0 0 0 0 0 0 0 0 0 0 0 0 0 0 0 0 0 0 0 0 0 0 0 0 0 0 0 2 2
0 4 4 26 13 8 13 2 0 0 6 3 0 1 0 0 0 0 0 0 0 0 0 0 0 0 0 0 0 0 0 0 0 0 0 0 0 0 0 0 0 0 0 0
0 4 0 6 5 12 3 0 4 2 0 0 0 0 0 0 0 0 0 0 0 0 0 0 0 0 0 0 0 0 0 0 0 0 0 0 0 0 0 0 0 0 0 0
0 0 0 0 0 0 2 0 0 0 0 0 0 0 0 0 0 0 0 0 0 0 0 0 0 0 0 0 0 0 0 0 0 0 0 0 0 0 0 0 0 0 0 0
1 0 1 0 2 0 0 0 0 0 0 0 0 0 0 0 0 0 0 0 0 0 0 0 0 0 0 0 0 0 0 0 0 0 2 2 0 0 0 0 0 0 0 0

GFSNGP_con_mlcape_045.txt.gz
CAPE
0 0 0 0 0 0 0 0 0 0 0 0 0 0 0 0 0 0 4 427 1030 1260 1373 1492 1350 1124 1014 993 1202 1376 2234 2442 2487 2670 2600 2584 2587 2783 2525 1812 2112 2007 2127 2135
0 0 0 0 0 0 0 0 0 0 0 0 0 17 0 0 0 35 137 392 683 965 1250 1533 1601 1407 1278 1195 1248 1385 1840 2329 2708 2869 2941 2777 2857 2792 2918 2888 2309 2499 2346 2290
0 0 0 0 0 0 0 0 0 0 0 0 0 4 0 0 0 0 0 0 5 11 886 1475 1670 1740 1670 1603 1497 1499 1614 1867 2548 2854 2970 3024 3046 3136 3063 3104 3176 2742 2729 2642
0 0 0 0 0 2 0 0 0 0 3 0 1 35 1 0 0 0 0 0 0 0 0 0 1301 1862 1788 1884 1969 1897 1800 1870 1924 2650 2836 2958 3055 3108 3143 3172 3250 3388 3193 3068
0 0 0 0 0 0 10 0 2 70 23 7 77 5 94 70 117 158 163 197 202 186 75 16 0 0 1867 2183 2165 2329 2320 2355 2283 2449 2694 2915 2946 3093 3170 3184 3182 3255 3455 3396
0 0 0 0 0 0 0 0 0 35 234 72 35 0 22 0 17 75 149 209 406 289 215 68 15 1 726 1311 1970 2255 2391 2583 2720 2715 2850 2886 3074 3140 3286 3289 3269 3288 3338 3466
0 0 0 0 0 0 0 0 0 0 0 0 0 0 0 0 0 0 10 86 369 564 800 814 238 66 30 484 1448 2163 2046 1995 2348 2555 2767 3011 3081 3354 3430 3471 3480 3506 3489 3511
0 0 0 0 0 0 0 0 0 0 0 0 0 0 0 0 0 0 0 0 236 386 640 1198 1257 164 0 54 209 548 1798 2306 2095 2330 2366 2878 3057 3361 3598 3630 3639 3584 3660 3744
0 0 0 0 0 0 0 0 0 0 0 0 0 0 0 0 0 0 0 0 19 439 1159 1556 2052 1156 251 507 1317 1580 548 1818 2259 2258 2426 2474 2818 3215 3658 3798 3847 3834 3843 3891
0 0 0 0 0 0 0 0 0 0 0 0 0 0 0 0 0 0 0 0 2 456 1431 2857 3152 2966 2683 2676 2368 1577 1643 2156 2368 2914 3087 3045 3127 3277 3576 3959 4012 4036 4006 3933
0 0 0 0 0 0 0 0 0 0 0 0 0 0 0 0 0 0 0 0 0 33 802 2085 2456 3026 3149 3096 3108 3402 2396 2940 3102 2763 3315 3482 3120 2852 3717 3837 3937 3969 3923 3752
1 0 1 0 0 0 0 0 0 0 0 0 0 0 0 0 0 0 0 0 0 0 301 2009 2024 2012 2044 2132 2679 3062 3768 3518 3878 3679 3600 3638 3133 1768 334 1180 1593 2084 2282 3395
1 0 0 0 0 0 0 0 0 0 0 0 0 0 0 0 0 0 0 0 0 0 0 890 2134 1859 1784 1663 1972 2644 2894 3737 3435 3470 3446 3633 3817 3378 2307 133 5 8 162 277
0 0 0 0 0 0 0 0 0 0 0 0 0 0 0 0 0 0 0 0 0 0 0 947 1742 1615 1400 1552 1382 1943 1903 1934 2697 3295 3104 3609 3466 3742 2536 1736 1604 364 0 0
4 3 0 0 0 0 0 0 0 0 0 0 0 0 0 0 0 0 0 0 0 0 0 1304 1686 1327 1377 1410 1581 1565 1603 1554 1529 1703 1815 1837 1791 2030 2204 1678 938 273 0 0
7 1 0 0 0 0 0 0 0 0 0 0 0 0 0 0 0 0 0 0 0 0 0 848 1039 712 815 1254 1469 1539 1060 777 772 886 816 660 636 578 441 266 43 1 0 0
1 0 0 0 0 0 0 0 0 0 0 0 0 0 0 0 0 0 0 0 9 13 0 0 262 663 654 982 1153 554 825 662 747 711 309 96 0 0 8 33 25 0 0 0
12 10 3 2 10 6 10 13 2 1 0 0 0 0 0 0 0 0 0 0 0 0 0 0 0 15 522 1027 1032 949 470 640 408 148 139 108 19 0 0 0 0 0 0 0
6 5 8 14 7 6 4 4 13 6 4 0 0 0 2 2 2 2 1 0 0 0 1 0 0 0 0 22 279 564 177 177 73 0 0 0 0 0 0 0 0 0 0 1
3 0 0 0 5 18 15 5 0 1 1 3 2 2 1 2 1 2 0 1 2 2 2 0 0 0 0 0 0 0 0 0 0 0 0 0 0 0 0 0 0 0 0 0
3 0 0 0 0 0 10 9 20 17 3 0 2 4 2 2 0 1 1 0 0 0 2 0 0 1 2 0 0 0 0 0 0 0 0 0 0 0 0 0 0 0 0 0
0 5 5 0 0 0 0 0 2 11 19 27 23 5 1 2 0 2 2 2 1 0 0 1 0 0 1 2 1 0 0 0 0 0 0 0 0 0 1 1 3 4 4 3
0 1 8 19 2 0 4 0 0 0 0 0 1 0 1 1 0 0 1 0 0 0 0 0 0 0 0 1 1 2 0 0 0 0 0 0 0 0 0 0 0 0 0 0
0 12 17 40 21 1 0 0 0 0 1 8 13 3 0 0 1 4 3 6 0 0 0 0 0 0 0 0 0 0 0 0 0 0 0 0 0 0 0 0 0 0 0 0
0 17 2 0 3 14 0 0 0 0 0 0 0 0 0 0 0 0 0 0 0 0 0 0 0 0 0 2 0 0 0 0 0 0 0 0 0 0 0 0 0 0 0 0
0 0 4 4 0 0 0 0 0 0 0 0 0 0 0 0 0 0 0 0 0 0 0 0 0 0 0 0 0 0 0 0 0 0 0 0 0 0 0 0 0 0 0 0
0 0 0 0 0 0 0 0 0 0 0 0 0 0 0 0 0 0 0 0 0 0 0 0 0 0 0 0 0 0 0 0 0 0 0 0 0 0 0 0 0 0 0 0

GFSNGP_con_mlcape_048.txt.gz
CAPE
0 0 0 0 0 0 0 0 0 0 0 0 0 0 0 0 0 0 139 741 902 974 899 847 653 536 718 927 1078 1493 1563 1620 1592 1530 1597 1930 1887 1670 1334 1143 1329 1137 766 1361
0 0 0 0 0 0 0 0 0 0 0 0 0 0 0 0 0 0 228 932 1182 1103 1057 1052 882 699 680 835 1069 1369 1638 1707 1766 1874 1819 1800 1959 2018 1869 1638 1219 1345 1370 1386
0 0 0 0 0 0 0 0 0 0 0 0 0 0 3 3 0 2 155 791 1244 1156 1131 1156 1087 879 756 828 885 1268 1580 1675 1927 1976 2101 2086 2132 2185 2277 2157 2037 1407 1474 1591
0 0 0 0 0 0 0 0 0 0 0 0 86 83 61 90 85 136 140 254 433 871 1047 1240 1238 1044 899 828 901 1068 1252 1764 1961 2303 2291 2434 2478 2419 2400 2521 2569 2403 2031 1998
0 0 0 0 0 0 0 0 0 0 17 143 102 26 19 11 45 118 219 162 107 97 465 904 1268 1431 1250 1155 1138 1118 1234 1278 1908 2180 2480 2582 2715 2780 2724 2818 2801 2845 2898 2703
0 0 0 0 0 0 0 0 0 0 0 8 24 11 0 0 0 0 75 200 350 526 399 138 98 944 1670 1624 1574 1493 1390 1455 1497 1854 2375 2537 2693 2749 2928 2945 2957 2992 3014 3145
0 0 1 0 0 0 0 0 0 0 0 0 0 0 0 0 0 0 1 190 447 737 843 1008 680 34 627 1711 2054 1990 1983 1761 1745 1726 1861 2274 2532 2715 2780 2930 2981 2968 2980 2993
0 0 1 0 0 0 0 0 0 0 0 0 0 0 0 0 0 0 0 84 524 1351 1879 2142 1421 229 1 64 403 983 2119 2164 2364 2396 2257 2382 2501 2585 2779 2853 2998 3030 3037 3109
0 0 0 0 0 0 0 0 0 0 0 0 0 0 0 0 0 0 0 0 3 748 1628 2506 2892 1638 1283 2217 2022 1902 769 942 2195 2463 2594 2741 2733 2720 2831 3022 3114 3189 3248 3252
0 0 0 0 0 0 0 0 0 0 0 0 0 0 0 0 0 0 0 0 0 21 844 1686 2384 2669 2789 2742 2735 2760 2150 1449 1757 1790 2149 2489 2721 2782 2887 3044 3155 3286 3382 3431
0 0 0 0 0 0 0 0 0 0 0 0 0 0 0 0 0 0 0 0 0 0 0 579 1708 1840 1594 1399 1754 2538 2823 3107 2307 1880 1988 2170 1985 2110 2910 3071 3076 3213 3439 3570
1 0 1 0 0 0 0 0 0 0 0 0 0 0 0 0 0 0 0 0 0 0 0 0 829 1696 1661 1402 1119 1009 1893 2691 3169 3406 3154 2779 1849 1270 119 673 1538 2862 3510 3661
1 0 0 0 0 0 0 0 0 0 0 0 0 0 0 0 0 0 0 0 0 0 0 0 21 1529 1512 1350 1196 988 917 1972 1974 2887 3710 3446 2457 2297 2240 310 83 535 1307 1966
1 1 0 1 1 0 0 0 0 0 0 0 0 0 0 0 0 0 0 0 0 0 0 0 0 909 1540 1308 1187 1136 1034 1462 1722 2288 2926 3442 3453 2441 1569 1634 1593 675 0 33
1 0 0 0 0 0 0 0 0 0 0 0 0 0 0 0 0 0 0 0 0 0 0 0 0 0 1163 1098 935 1240 1226 1229 1333 1573 1930 2650 3054 2886 1909 1339 756 212 0 0
1 1 0 2 7 0 0 0 0 0 0 0 0 0 0 0 0 0 0 0 0 0 0 0 0 0 120 649 623 986 1189 874 994 1231 1299 1529 1757 2227 1945 1184 413 20 0 0
2 1 2 2 3 2 3 2 1 0 0 0 0 0 0 0 0 0 0 0 0 0 0 0 0 0 0 412 478 615 964 739 660 548 656 695 797 767 646 321 17 0 0 0
12 9 9 7 3 2 3 3 4 3 3 1 0 0 0 0 0 0 0 0 0 0 0 0 0 0 0 3 127 617 973 434 557 339 68 22 14 16 1 0 0 0 0 0
2 9 7 2 5 7 6 3 3 4 2 2 2 1 1 1 0 0 2 0 1 0 1 1 0 0 0 0 66 287 725 452 150 72 0 0 0 0 0 0 0 0 0 0
0 0 0 0 0 0 0 0 0 2 4 3 2 3 2 3 2 2 1 1 0 2 2 1 0 0 0 0 0 0 88 5 0 0 0 0 0 0 0 0 0 0 0 0
0 0 0 0 0 0 0 0 0 0 0 0 3 3 2 3 2 2 1 0 0 0 1 4 2 0 4 0 0 1 0 0 0 0 2 2 1 0 0 1 1 1 1 4
0 16 7 0 0 0 0 0 0 0 0 0 0 0 0 0 1 2 1 2 2 0 1 2 3 3 3 0 4 4 3 2 4 3 2 3 2 3 4 2 1 1 2 2
1 22 29 23 15 1 0 0 0 0 0 0 1 0 4 2 0 0 0 0 0 0 0 4 3 3 1 3 1 0 0 0 1 2 2 2 2 0 0 0 0 0 0 0
0 0 9 22 1 0 0 0 0 10 3 0 0 0 0 1 11 0 0 0 0 0 0 0 0 1 0 1 2 2 2 1 3 3 0 0 0 0 0 0 0 0 0 0
0 0 0 0 0 0 0 0 0 0 0 0 0 0 0 0 0 0 1 0 0 0 0 0 0 0 0 0 1 1 1 1 1 0 0 0 0 0 0 0 0 0 0 0
0 0 0 0 0 0 0 0 0 0 0 0 0 0 0 0 0 0 0 0 0 0 0 0 0 0 0 0 0 0 0 0 0 0 0 0 0 0 0 0 0 0 0 0
0 0 0 0 0 0 0 0 0 0 0 0 0 0 0 0 0 0 0 0 0 0 0 0 0 0 0 0 0 0 0 0 0 0 0 0 0 0 0 0 0 0 0 0